Location: Unspecified
(0.0000°N, 0.0000°E)
Time: 17:35:47
(UTC+00:00)

S-56A Canister/Altair - Pass Details

Date: 21 December 2018
Orbit: 633 x 2499 km, 38.9° (Epoch: 17 June)

Event Time Altitude Azimuth Distance (km) Brightness Sun altitude
Rises 23:19:50 0° 278° (W) 3,076 - -64.8°
Reaches altitude 10° 23:23:54 10° 313° (NW) 2,389 - -65.1°
Maximum altitude 23:25:40 11° 331° (NNW) 2,410 - -65.3°
Drops below altitude 10° 23:27:36 10° 350° (N) 2,659 - -65.4°
Sets 23:33:04 0° 21° (NNE) 4,077 - -65.8°
